SL-16 DEB, 22423

Orbit data source: Space-Track

SL-16 DEB, 22423 is space debris in LEO originally from a launch on Fri, 25 Dec 1992 UTC launched from the Tyuratam Missile And Space Complex (TTMTR). Debris objects in space refer to the collection of defunct objects orbiting the Earth. Examples of debris include non-operational satellites, rocket bodies, and fragments generated from explosions, collisions, or faulty payload assembly.

Loading next visibility...
Identifier
22423, 1992-093DQ
Orbit
LEO
Country
Flag of CISCIS
Related business
Manufacturer
Unknown
Mission
Spacecraft
Bus & Motor
Unknown
Mass
Unknown
Launch date (UTC)
1992-12-25 (33 years ago)
Launch vehicle
Unknown
Launch site
Tyuratam Missile And Space Complex (TTMTR)
Object type
Payload
Rocket body
Debris
Shape & HBR
Unknown shape, 0.2 m
Radar Cross Section
Medium (>0.1 m² and <1 m²)

Expand to show TLE details & history
Last TLE update: 7 hours ago

TLE from 7 hours ago
0 SL-16 DEB
1 22423U 92093DQ  26133.13790256  .00000010  00000-0  37713-4 0  9990
2 22423  71.2797 304.1650 0099906 341.5195  18.2299 13.95512423696779
Epoch: 2026-05-13T03:18Z
TLE epoch observation values (Epoch: 2026-05-13T03:18:34.781Z)
Latitude
0.00001°
Longitude
23.61785°
Altitude
842.683 km
Speed
7.467 km/s
True Right ascension
20h 16m 39s
True Declination
0° 00' 00"
Sunlit
Object was in daylight at epoch
Visualization orbit readout
Latitude
Unknown
Longitude
Unknown
Altitude
Unknown
Speed
Unknown
Apparent Right ascension
Unknown
Apparent Declination
Unknown
Sunlit
N/A
Visualization observer readout
Local Sidereal Time
18:40:50
Azimuth
Unknown
Elevation
Unknown
Doppler factor
Unknown
Orbital elements
Apogee altitude
980.079 km
Perigee altitude
834.507 km
Semi-major axis
7,285.43 km
Eccentricity
0.00999
Inclination
71.2797°
RAAN
304.165°
Arg. of periapsis
341.5195°
True anomaly
18.59234°
Mean anomaly
18.2299°
Eccentric anomaly
18.41068°
Mean motion
3.49028 °/min
Orbital period
103.14 mins
BSTAR
0.000037713
Loading maneuver chart data...
Computing Atmospheric mass density...
Loading historical data...
Loading historical data...
Loading historical data...
Loading historical data...
Loading historical data...
Loading historical data...
Loading historical data...

Documentation

Showing up to 5 results
|